Theta_e
312 318 318 319 320 318 315 314 313 315 315 316 317 318 320 321 320 318 318 319 316 316 320 319 318 318 318 317 315 314 315 314 313 313 313 313 312 311 310 308 307 306 306 307 308 308 309 309 309 309 309 309 309 310 310 310 311 311 311 310 310 309 309 311 313 314 316 318 319 320 320 320 321 321 321 321 321 321 320 320 320 320 320 320 320 320
313 319 320 319 318 317 316 315 314 315 315 316 318 319 322 322 320 317 317 318 315 316 322 321 318 318 317 316 315 314 314 313 313 312 312 312 310 309 308 307 306 306 306 307 308 308 308 308 308 308 308 309 309 309 309 309 310 310 309 309 308 308 309 310 311 311 311 313 314 315 316 316 317 317 317 317 318 318 319 319 319 319 319 318 318 318
316 318 318 316 315 315 316 316 316 317 317 319 320 320 321 321 320 321 321 318 315 316 322 322 318 317 317 316 315 314 313 312 312 312 311 310 309 308 307 306 306 306 306 307 307 307 308 308 308 308 308 308 308 308 308 308 308 308 308 308 307 308 308 309 309 309 309 310 311 312 312 312 312 313 313 313 313 313 313 314 315 315 316 316 316 316
319 319 316 313 314 316 317 318 318 318 319 322 321 320 322 320 319 323 323 319 317 317 319 319 318 318 317 317 316 313 312 311 311 311 310 309 308 307 306 306 306 306 306 306 306 307 307 307 307 307 307 307 307 307 307 307 307 307 307 307 307 307 307 308 308 307 307 308 309 310 311 311 311 311 311 310 309 308 308 309 309 310 310 311 311 312
321 319 316 315 317 318 318 319 320 319 322 326 324 321 322 320 319 321 321 319 319 321 322 318 320 324 320 317 317 313 310 311 310 309 309 308 307 306 305 305 305 305 305 306 306 306 307 307 307 307 307 308 308 308 307 307 307 307 308 308 308 308 308 308 308 308 307 307 307 307 308 308 308 308 308 308 307 307 307 306 306 306 306 306 307 307
319 316 316 319 319 320 320 321 322 322 322 325 326 323 321 321 321 321 322 322 321 324 323 317 322 329 325 319 320 315 311 310 309 308 308 307 306 305 305 304 304 304 305 305 305 306 306 307 307 307 307 308 308 307 307 307 308 308 308 308 308 308 309 308 308 308 308 308 307 307 307 306 306 306 306 306 306 306 306 306 305 305 304 304 304 304
319 317 319 322 322 321 321 322 324 324 321 322 325 324 322 321 320 321 321 320 323 324 320 316 320 325 322 320 321 316 312 311 309 307 307 306 305 305 304 303 303 303 303 303 304 305 306 306 307 307 307 307 307 307 307 308 308 308 308 308 308 308 308 308 308 308 308 308 308 307 307 306 306 306 305 305 305 305 305 305 305 304 304 304 303 303
320 318 319 321 321 321 321 323 325 323 322 325 324 321 321 320 319 320 317 318 323 321 318 317 317 318 319 321 319 316 313 311 309 307 306 305 304 304 303 302 302 302 302 303 302 303 304 305 306 306 306 306 306 307 307 307 307 307 307 307 307 307 307 307 308 307 308 308 308 307 307 307 306 306 305 305 305 305 305 305 304 304 304 304 303 303
318 320 322 321 321 321 325 327 325 321 322 326 322 317 318 317 317 318 316 318 320 318 319 320 316 317 323 325 318 314 314 311 309 308 306 304 304 303 302 301 301 301 302 303 303 302 303 304 305 305 306 306 306 306 306 306 306 306 306 306 306 306 306 306 306 306 307 307 307 307 307 307 306 306 306 305 305 305 304 304 304 304 304 303 303 303
318 318 320 323 323 322 327 328 324 323 322 320 317 317 321 318 317 317 315 317 318 317 320 321 318 318 324 330 322 314 315 313 309 307 305 304 303 302 302 301 301 301 302 303 303 303 303 303 304 305 305 306 305 305 306 306 306 305 305 305 305 305 305 305 305 306 306 306 306 307 307 306 306 306 306 305 305 305 304 304 304 304 304 303 303 303
316 312 314 319 320 319 322 319 316 319 317 314 317 321 323 321 320 318 318 319 317 319 323 321 320 317 321 332 324 315 315 312 308 306 304 303 302 301 301 300 300 301 301 302 303 303 304 304 304 305 305 305 305 305 305 305 305 305 305 304 304 304 304 304 304 305 305 305 305 305 305 305 305 305 305 305 305 304 304 304 304 304 303 303 303 303
315 314 315 315 315 315 317 315 314 314 312 315 322 321 320 323 323 319 320 321 318 323 328 323 320 316 320 327 319 311 313 311 308 306 304 302 301 300 300 300 300 301 302 303 303 304 304 304 304 304 304 304 304 304 304 303 303 304 303 303 303 303 303 303 303 304 304 304 304 304 304 304 304 304 303 303 303 303 303 303 303 303 303 303 303 303
320 320 317 314 314 313 316 319 318 317 315 317 321 318 317 322 324 322 322 321 320 325 326 322 319 318 321 321 313 309 309 308 307 305 302 301 300 299 299 299 300 301 303 303 303 303 303 303 303 303 303 302 302 302 302 302 302 302 302 302 302 302 302 302 302 303 303 303 303 303 302 302 302 302 301 301 301 301 301 301 301 302 302 302 303 303
323 322 317 315 315 314 316 319 320 322 318 315 318 319 319 322 322 323 323 319 319 322 322 317 316 320 323 316 308 305 304 303 303 302 301 301 299 299 298 299 300 301 302 302 302 302 302 302 302 301 302 301 301 301 301 301 301 301 301 301 301 300 300 301 301 301 301 301 301 301 301 301 300 300 300 299 299 299 299 299 300 300 300 301 301 302
322 322 321 320 318 315 316 316 320 326 320 315 318 321 321 324 321 319 319 318 319 324 322 317 316 323 324 313 304 303 302 301 301 301 300 300 298 299 298 299 301 301 301 301 301 301 301 301 301 300 301 300 300 300 300 300 300 300 299 299 299 299 299 299 299 299 299 299 299 299 299 299 299 299 299 298 298 297 297 297 298 298 298 299 299 299
319 321 321 317 315 315 315 314 317 323 321 316 317 318 320 324 322 318 318 319 320 322 320 319 320 320 315 308 303 302 301 300 301 300 299 299 298 298 298 299 300 301 301 301 301 301 300 300 299 299 299 299 299 299 299 299 298 298 297 297 297 297 297 297 297 297 297 297 297 297 297 297 297 297 297 297 297 297 297 296 296 296 296 297 297 297
318 321 319 314 313 314 313 314 314 315 321 319 315 320 324 322 319 319 321 320 317 318 318 317 319 314 309 307 304 302 302 301 300 300 299 299 298 298 299 300 300 300 300 300 300 300 299 299 299 299 298 298 298 298 297 297 296 296 296 295 295 295 295 295 295 294 294 294 295 295 295 295 295 295 295 295 295 296 296 295 295 295 295 295 295 295
319 320 320 316 317 313 308 310 313 311 316 320 318 320 321 318 316 318 320 320 318 318 317 316 317 315 313 312 306 303 304 303 301 300 299 299 299 298 299 300 300 300 300 299 299 299 298 298 298 298 298 297 297 296 295 295 294 293 293 293 293 293 293 293 292 292 292 292 293 293 293 293 293 293 293 293 293 293 293 293 294 294 294 294 293 293
320 319 319 317 317 315 310 312 316 313 311 315 317 317 316 317 319 319 319 319 318 317 317 318 317 316 316 315 309 305 305 304 302 301 300 299 299 298 299 299 299 299 299 299 298 298 298 298 298 298 297 297 296 294 293 292 291 291 291 291 291 291 291 291 291 291 291 291 291 291 291 291 291 291 291 291 291 291 291 291 291 291 292 292 292 292
320 319 319 316 314 316 316 316 319 317 312 312 314 315 317 317 318 319 317 318 319 317 317 317 317 319 320 317 311 306 304 303 303 303 302 300 299 300 300 300 300 299 299 298 298 297 297 297 297 296 295 294 293 292 291 290 290 290 290 290 289 289 289 289 290 290 290 290 290 290 290 290 290 290 289 290 289 289 290 289 290 290 290 290 290 290
319 318 319 319 316 315 318 318 320 321 316 314 316 316 316 315 316 317 315 315 318 317 317 316 316 321 321 313 309 306 304 303 303 304 303 301 300 301 301 300 300 299 298 298 297 297 296 295 295 293 292 291 290 290 290 290 290 290 289 289 289 289 289 289 289 289 289 289 289 289 289 289 289 289 289 289 289 289 289 289 289 289 289 289 289 289
317 317 319 321 318 316 320 320 318 318 315 315 318 319 318 317 316 316 315 315 316 315 315 315 314 318 316 309 307 305 304 303 302 302 303 301 301 301 301 300 300 298 298 297 296 295 294 293 292 291 291 290 290 290 290 290 290 289 289 289 289 289 289 289 289 289 289 289 289 289 288 288 288 288 288 288 288 289 289 289 289 289 289 289 289 288
313 316 318 319 317 315 318 317 312 312 312 314 315 316 319 320 317 316 315 314 314 314 313 313 313 315 312 308 307 305 303 303 303 302 303 302 302 301 300 300 299 298 297 295 295 294 293 292 292 291 291 290 290 290 290 289 289 289 289 289 289 289 289 289 289 289 289 289 289 289 289 289 289 288 289 288 288 288 288 288 288 288 288 288 288 288
313 317 317 317 317 315 314 313 311 312 314 315 314 314 315 316 315 314 313 312 313 313 313 312 313 313 310 306 304 304 303 303 303 304 303 302 302 301 300 299 298 297 296 295 295 294 293 292 292 291 290 290 290 289 289 289 289 289 289 289 289 289 289 289 289 289 289 289 289 289 289 289 289 289 289 289 289 289 289 289 288 288 288 288 288 288
312 315 315 315 315 314 313 311 312 314 315 313 312 312 312 311 310 311 311 311 311 311 312 312 312 312 310 307 304 303 304 303 303 303 303 302 302 301 299 298 297 296 296 295 295 294 293 292 292 291 290 290 290 289 289 289 289 289 289 289 289 289 289 289 289 289 289 289 289 289 289 289 289 289 289 289 289 289 288 288 288 288 288 288 288 288
313 313 313 313 312 311 311 310 311 312 312 310 309 309 309 308 308 308 309 310 310 310 310 310 310 310 310 308 306 305 305 304 303 302 302 302 301 300 299 298 297 296 295 294 293 293 293 292 291 290 290 289 290 289 289 290 290 290 290 290 290 290 290 290 290 290 290 289 289 289 289 289 288 288 288 288 288 288 288 288 288 288 288 287 287 287
312 311 312 312 311 310 310 309 309 309 309 309 309 308 308 307 306 306 307 308 309 309 308 308 308 308 307 307 306 305 306 306 303 300 301 301 300 300 299 297 297 296 295 294 293 292 292 291 291 291 290 290 290 290 291 291 291 291 290 290 290 290 290 290 290 290 290 290 290 289 289 289 288 288 288 288 288 288 288 288 287 287 287 287 287 287
311 310 310 311 310 310 309 308 308 307 307 308 308 307 307 307 306 306 306 307 308 307 307 307 307 306 305 304 303 304 306 306 302 300 300 300 299 299 298 297 296 295 294 293 292 292 292 293 293 292 292 292 292 291 291 291 291 291 291 291 291 291 291 290 290 290 290 290 290 289 289 289 289 289 288 288 288 288 288 287 287 287 286 286 286 286
310 310 309 309 309 309 308 307 306 305 305 305 305 305 305 304 304 304 304 305 306 306 305 305 305 304 303 302 303 303 302 302 300 300 300 300 299 298 297 296 295 295 294 294 294 294 294 294 294 294 293 293 292 292 291 291 291 291 291 291 291 291 291 291 290 290 290 290 289 289 289 288 288 288 288 288 288 287 287 287 287 286 286 286 286 285
308 308 307 306 307 307 306 305 304 304 304 304 304 304 303 303 303 303 303 303 304 304 304 304 304 303 302 302 302 301 299 299 298 298 299 298 298 297 296 296 295 295 294 294 294 294 294 293 293 293 293 292 292 292 291 291 291 291 291 291 291 291 291 291 290 290 290 289 289 289 288 288 287 287 287 287 287 287 287 286 286 286 286 285 285 285
305 306 304 304 305 305 304 302 302 304 303 302 302 301 301 301 301 301 301 301 302 302 302 302 302 302 301 300 299 299 298 297 296 295 296 296 297 297 296 294 294 293 293 293 293 292 292 292 292 292 292 292 291 291 291 291 291 291 291 291 291 291 290 290 290 290 290 289 289 288 287 286 286 286 285 285 285 285 285 285 285 285 284 284 284 284
305 305 303 303 304 304 302 300 300 302 301 301 300 299 299 299 300 300 300 301 301 301 300 301 300 300 300 299 298 296 295 295 294 293 293 294 294 294 293 293 293 292 292 292 292 292 292 291 291 291 291 291 291 290 290 290 290 290 290 290 289 289 289 289 289 289 289 288 287 287 286 285 284 284 284 284 284 283 283 283 283 283 283 283 283 283
306 304 304 303 302 302 300 299 300 300 299 299 299 298 298 298 298 299 299 300 300 299 300 299 299 299 299 299 299 296 293 293 293 293 293 293 292 293 292 292 292 292 292 292 291 291 291 291 290 290 290 290 290 290 289 289 289 289 289 288 288 288 287 287 287 287 287 286 286 285 284 284 283 283 283 283 282 282 282 282 281 282 282 282 282 282
303 303 304 303 302 300 299 299 299 299 298 298 298 299 300 299 300 300 299 299 299 299 299 299 299 301 300 299 299 297 294 293 292 292 292 292 292 293 292 292 292 292 292 291 291 291 291 290 290 290 290 289 289 289 289 289 289 288 288 288 288 287 287 287 286 286 286 285 284 284 283 283 283 283 282 282 281 281 281 280 280 280 280 280 280 281
302 302 302 302 301 299 299 298 298 298 298 298 299 301 299 298 299 299 298 298 298 298 298 297 299 301 299 297 297 296 293 292 292 292 292 292 292 292 292 292 292 292 291 291 291 291 291 290 290 290 290 289 289 289 289 288 288 288 288 287 287 287 286 286 285 284 284 284 283 283 283 282 282 282 281 281 280 280 280 280 280 280 279 279 279 280
301 301 301 301 300 299 299 298 297 297 297 297 298 297 296 296 297 297 296 297 297 297 297 296 298 298 295 294 294 293 292 292 291 291 292 292 292 292 292 292 292 291 291 291 291 291 291 290 290 290 289 289 289 289 288 288 288 287 287 286 286 286 285 284 284 283 283 283 283 283 282 282 282 281 281 280 280 280 280 280 279 279 279 278 279 279
300 300 300 299 299 299 298 298 298 297 297 297 296 296 296 296 296 296 296 297 297 296 295 298 299 295 291 292 292 291 291 291 292 292 292 292 292 292 292 292 291 290 290 290 290 290 290 290 290 289 289 289 288 288 288 287 287 287 286 286 285 284 284 283 283 283 283 283 282 282 281 281 281 280 280 280 280 280 280 279 279 279 278 278 278 278
298 299 299 298 298 298 298 297 297 296 296 296 296 295 295 294 295 296 297 298 297 294 293 297 299 293 289 290 291 291 291 292 293 293 292 291 292 291 291 291 290 290 290 290 290 290 290 289 289 289 289 288 288 288 287 287 286 286 285 284 284 283 283 283 283 282 282 282 282 281 281 280 280 280 280 279 279 279 279 279 279 279 278 277 277 277
295 297 298 298 297 297 297 297 297 296 296 297 296 294 293 292 293 294 296 298 296 292 291 294 294 290 289 291 291 291 292 293 294 293 291 291 291 291 290 290 290 290 290 290 290 290 289 289 289 288 288 288 288 287 287 286 286 285 284 283 283 283 283 282 282 282 282 282 281 281 280 280 279 279 279 279 279 279 279 278 278 278 277 276 276 275
294 295 297 297 297 297 297 297 297 296 297 297 295 293 293 293 294 294 295 297 295 292 292 294 292 290 291 291 290 291 292 293 293 292 290 290 291 290 290 290 290 290 290 290 290 289 289 289 289 288 288 288 287 287 286 286 285 284 283 283 282 282 282 282 282 281 281 281 280 280 279 279 279 278 278 278 278 278 278 277 277 276 275 275 274 274
293 294 295 296 296 296 296 297 296 296 296 295 293 294 293 293 294 294 295 297 295 292 292 294 292 291 292 291 291 292 292 292 291 290 290 290 290 290 290 290 289 289 289 289 289 289 289 288 288 288 288 287 287 286 286 285 284 283 283 282 282 282 281 281 281 281 280 280 280 279 279 278 278 278 278 278 277 277 277 276 275 274 273 273 273 272
293 293 294 294 294 294 295 296 295 295 294 293 293 293 292 293 295 295 295 295 294 292 293 293 293 292 292 292 292 292 291 291 290 290 290 290 290 290 289 289 289 289 289 289 289 289 288 288 288 287 287 287 286 286 285 284 283 283 282 282 281 281 281 281 280 280 280 280 279 279 278 278 278 278 278 277 277 276 276 274 273 273 272 271 271 271
293 292 293 294 294 294 293 293 293 293 293 292 293 293 293 294 296 295 293 293 293 293 293 293 293 293 292 292 292 291 291 290 290 290 290 290 290 289 289 288 289 289 289 289 288 288 288 288 287 287 286 286 285 285 284 283 282 282 282 281 281 281 280 280 280 280 279 279 279 278 278 278 278 277 277 276 275 274 274 273 272 272 271 271 270 270
294 294 296 295 294 294 294 293 293 294 293 292 293 294 294 294 294 294 293 293 293 292 292 292 292 292 292 292 292 291 291 290 290 290 289 289 289 288 288 288 288 288 288 288 288 288 287 287 287 286 285 285 285 284 283 282 282 282 281 281 280 280 280 280 280 279 279 278 278 278 278 277 277 277 276 275 274 273 273 272 271 271 271 270 270 269
294 295 297 295 294 294 294 294 295 295 293 292 293 294 294 293 293 293 293 293 293 292 292 292 292 292 292 292 291 291 290 290 290 289 289 288 288 288 288 288 288 288 288 287 287 287 287 287 286 285 285 285 284 283 282 281 281 281 281 280 280 280 280 280 279 279 278 278 278 277 277 277 277 276 276 274 273 272 271 271 271 270 270 270 269 269
292 292 293 293 293 292 292 292 293 293 293 293 293 293 293 293 293 293 293 292 292 292 292 292 291 291 291 292 291 290 290 290 289 289 288 288 288 288 287 287 287 287 287 287 287 286 286 286 285 285 285 284 283 282 281 281 280 280 280 280 279 279 279 279 279 278 278 278 277 277 277 277 277 276 275 274 272 271 271 270 270 269 269 269 269 268
292 291 291 292 292 293 292 293 292 292 293 293 293 293 293 292 292 292 292 292 292 292 291 291 291 291 291 291 291 290 290 290 289 288 288 288 288 288 287 287 287 286 286 286 286 286 285 285 285 285 285 283 282 281 281 280 280 279 279 279 279 279 279 278 278 278 277 277 277 277 277 277 276 275 274 273 271 271 270 270 269 269 269 269 268 267
292 292 292 292 292 292 292 292 292 292 292 292 292 292 292 292 292 292 292 292 291 291 291 291 291 291 291 291 291 290 290 289 289 288 288 288 287 287 287 287 286 286 286 286 285 285 285 284 284 284 284 282 281 281 280 280 279 278 278 278 278 278 278 277 277 277 277 277 277 277 277 276 275 274 273 272 271 270 270 270 270 269 269 269 267 265
292 292 292 292 292 291 291 291 291 291 291 291 291 291 291 292 292 292 291 292 291 291 291 291 291 291 291 291 291 290 289 289 289 289 288 288 287 287 287 286 286 286 285 285 284 284 284 284 284 283 282 281 281 280 280 279 278 278 277 277 277 277 277 277 277 277 277 276 277 276 276 275 274 274 272 271 270 270 270 270 270 268 268 268 267 265
291 292 292 292 292 292 291 291 291 291 291 291 291 292 292 292 292 291 292 292 291 291 291 291 291 291 290 290 290 290 289 289 289 289 288 287 287 287 286 286 286 285 285 284 284 284 284 283 282 282 281 281 280 280 279 279 278 277 277 276 276 276 276 276 276 276 276 276 276 276 275 274 274 273 272 270 270 270 270 271 271 269 266 266 267 266
292 292 292 291 291 291 291 291 291 291 291 291 291 292 292 292 292 291 291 291 291 291 291 291 291 290 290 290 290 289 289 289 289 288 288 287 287 286 286 285 285 284 284 284 284 284 283 282 281 281 280 280 280 279 279 278 277 276 276 276 275 275 275 276 276 276 276 276 276 275 274 274 273 272 271 269 269 269 268 269 271 271 269 267 267 267
Wind_Speed
10 5 2 5 7 10 11 11 11 9 7 6 5 4 5 5 6 5 6 7 3 2 6 6 4 5 8 9 15 28 24 15 18 11 8 18 23 23 24 25 25 26 24 20 18 17 15 14 12 9 8 7 6 7 7 6 6 5 4 4 6 6 5 5 4 1 1 4 7 9 10 12 13 15 16 17 18 20 21 22 24 25 25 25 26 26
7 4 7 11 11 11 9 8 8 7 6 5 5 4 5 5 6 5 6 7 3 2 5 4 6 7 9 10 18 24 16 11 8 6 17 21 23 23 24 24 25 25 22 21 21 20 20 20 19 17 16 15 13 13 11 9 9 8 8 9 10 9 8 8 7 6 5 2 1 4 6 7 9 10 11 13 14 16 18 19 21 22 23 23 24 24
4 5 11 13 10 7 7 5 6 7 6 5 4 2 4 4 3 6 6 4 3 1 5 6 6 8 10 12 18 17 7 8 11 17 19 21 24 22 23 24 24 25 24 25 25 25 25 25 25 26 26 25 23 22 20 18 17 16 17 17 15 13 12 11 9 8 7 5 3 1 1 2 3 4 6 7 8 10 11 14 16 18 20 21 22 22
3 7 13 14 8 5 7 7 7 6 5 5 4 2 5 4 1 4 5 5 4 2 3 4 6 5 7 12 12 7 11 16 21 25 24 25 26 24 24 24 25 27 27 28 28 28 28 28 30 31 31 31 30 30 29 28 27 27 27 25 24 22 20 18 16 13 11 8 5 2 0 1 2 2 3 4 4 5 5 7 9 11 13 15 16 17
7 7 8 8 5 6 7 9 7 5 4 4 4 5 5 4 4 6 4 4 5 5 2 3 5 4 6 10 8 6 14 15 19 24 25 24 25 26 26 26 27 28 29 30 31 31 31 32 33 34 35 35 36 36 35 34 33 33 32 31 30 29 28 26 24 21 18 15 12 8 5 3 2 1 1 1 2 3 4 4 4 5 6 7 8 10
9 8 6 6 6 5 6 7 6 5 3 4 4 8 8 7 7 5 3 5 4 5 4 4 4 6 5 7 7 2 8 8 11 16 18 20 22 25 26 26 27 28 29 31 32 33 34 34 34 35 35 36 37 37 35 34 34 33 32 31 30 30 29 28 27 25 23 22 19 17 14 11 9 6 5 4 4 5 5 6 7 7 6 5 5 5
5 4 4 5 6 5 4 5 5 6 3 3 5 6 6 6 4 2 2 3 1 3 4 2 1 6 4 5 8 3 8 6 8 10 13 17 20 23 24 23 25 27 29 30 31 32 33 34 34 34 34 35 35 34 32 30 30 29 29 28 27 27 27 26 25 24 23 23 22 21 19 17 15 12 9 6 5 6 7 7 7 8 9 8 7 6
3 2 4 4 3 4 3 5 5 6 6 4 5 3 5 3 2 2 2 1 3 2 5 2 4 4 4 6 7 5 10 6 6 7 9 15 19 22 22 22 23 25 28 30 30 29 31 32 33 33 32 31 30 28 26 26 25 25 25 25 24 24 25 24 23 22 21 21 21 20 20 19 18 16 14 10 7 7 8 8 8 9 10 11 11 11
2 4 3 4 4 3 5 5 5 7 5 6 5 4 5 4 4 3 2 2 2 2 5 5 5 3 5 6 3 7 9 5 6 6 6 11 17 20 21 21 22 24 28 30 29 29 29 30 30 29 28 26 25 24 23 23 22 22 22 22 22 23 23 22 21 20 20 20 19 19 19 19 19 18 17 15 13 11 10 10 10 10 10 11 12 12
1 3 6 7 5 5 7 4 3 7 4 4 2 4 4 2 1 1 1 1 2 2 4 6 5 3 5 6 1 5 5 5 6 5 6 11 16 18 19 19 20 23 27 28 28 28 26 26 26 25 23 22 21 21 20 20 19 20 20 20 21 22 21 20 19 19 18 18 17 17 18 18 18 18 18 17 17 16 15 13 12 11 11 11 11 12
1 2 2 4 5 6 4 1 2 4 4 3 5 5 6 5 3 2 1 3 3 2 6 8 8 6 4 5 2 2 4 9 9 6 7 10 15 17 17 18 19 22 25 26 26 25 23 22 21 19 19 19 18 17 16 17 18 18 19 19 20 20 19 19 18 17 17 17 17 17 17 17 17 17 17 17 17 17 17 16 14 13 11 10 10 11
2 2 1 3 6 4 5 2 2 3 2 5 5 4 4 5 4 5 4 3 2 5 7 7 7 7 5 4 2 3 1 8 10 9 9 10 14 16 16 18 20 22 24 23 23 21 19 18 16 16 17 16 15 14 15 17 17 17 18 17 18 18 18 17 16 16 16 16 17 17 17 17 17 17 17 17 18 17 17 17 16 14 12 11 10 10
2 4 4 2 4 6 5 1 3 5 4 5 4 4 2 4 3 2 2 0 2 6 6 3 2 4 6 3 3 6 6 6 8 11 13 15 16 17 17 19 20 22 21 20 19 17 16 15 15 15 15 14 14 14 15 16 16 16 16 16 17 17 16 15 15 14 14 14 16 16 16 16 16 16 16 17 17 17 17 17 16 15 15 14 12 12
3 5 2 1 3 7 9 4 3 2 1 4 4 4 3 1 0 3 3 2 3 5 4 2 1 1 5 2 4 4 5 10 16 18 18 19 20 19 19 19 20 20 18 17 16 15 15 14 14 13 13 13 13 13 14 14 15 15 15 15 15 15 14 14 13 13 13 14 14 14 14 15 15 16 16 17 17 17 16 16 16 16 16 15 15 14
3 6 3 4 2 5 9 5 4 4 3 5 5 5 5 4 3 4 3 3 4 4 4 3 1 2 3 0 3 4 8 15 20 21 21 20 19 18 19 19 19 17 16 15 14 13 13 12 11 11 11 11 11 12 12 13 13 13 13 14 13 14 13 13 12 12 13 13 13 12 12 13 14 15 15 16 17 17 17 16 15 15 15 15 15 15
4 6 5 2 1 7 6 3 4 6 1 2 4 4 2 4 4 2 3 4 3 3 4 2 2 2 2 2 4 6 9 13 16 18 19 17 16 17 17 17 16 15 13 12 12 11 11 9 9 9 9 10 10 10 10 11 12 12 13 13 12 13 12 12 12 13 13 13 12 12 12 11 11 12 12 13 15 16 17 17 16 16 15 15 15 15
2 5 3 2 2 4 5 1 2 4 1 0 3 3 4 4 5 1 4 2 1 3 4 3 2 1 2 1 2 5 6 8 9 11 13 14 15 16 16 15 14 12 11 10 9 9 8 7 7 7 8 9 8 8 9 10 11 11 11 11 12 12 11 12 12 12 12 11 11 11 11 11 11 11 11 12 12 13 14 16 16 17 17 17 17 17
3 4 4 2 1 2 3 2 2 1 3 3 2 4 3 1 3 2 1 2 1 4 4 3 5 4 2 2 1 3 4 5 4 5 9 10 12 13 13 13 11 10 9 8 7 6 6 6 6 6 7 7 7 7 8 10 11 11 11 11 11 11 12 12 12 11 11 11 10 10 10 10 10 10 11 11 11 12 12 13 14 16 17 18 19 19
2 2 6 2 3 2 1 3 2 3 3 4 3 2 1 1 2 0 1 2 3 4 4 5 7 5 4 4 5 6 7 7 6 5 6 7 10 12 12 11 9 8 7 6 5 5 4 4 4 4 4 5 6 7 8 10 10 11 11 12 12 12 12 12 11 11 10 10 10 10 10 9 9 9 9 10 10 11 12 13 13 14 15 16 17 19
2 2 5 3 1 1 3 3 2 2 3 3 2 2 1 3 3 2 2 3 3 4 4 5 5 4 4 5 8 10 10 10 9 7 6 9 13 12 11 9 7 6 6 5 4 3 3 3 3 3 5 6 7 8 9 10 11 12 12 13 13 13 13 14 14 13 12 12 11 11 10 10 10 10 9 9 10 10 11 12 13 14 15 16 17 18
2 2 4 4 3 1 1 1 5 4 1 2 1 1 2 1 1 2 2 2 3 3 3 4 5 4 4 2 7 11 11 10 10 7 7 12 15 13 10 9 7 6 6 4 4 3 3 4 5 6 6 8 9 9 10 10 11 12 12 13 14 15 15 16 16 17 17 17 17 17 16 16 15 15 14 14 14 14 13 14 14 14 15 16 17 19
1 2 3 3 3 1 4 5 5 6 5 3 2 3 3 2 1 2 4 2 3 3 3 4 5 5 4 1 4 9 8 8 11 11 10 15 18 13 10 9 8 7 7 6 5 4 4 5 6 7 7 8 9 9 9 10 11 12 13 14 15 16 16 16 16 17 17 18 19 20 20 21 21 22 22 22 22 22 21 21 20 20 19 18 18 19
2 3 2 3 5 4 7 6 1 3 5 5 3 2 3 3 3 3 5 3 1 2 2 2 2 2 2 1 3 7 9 12 16 16 13 15 17 13 10 10 9 8 7 6 4 4 4 5 6 6 6 7 8 9 10 11 12 13 14 15 16 17 18 19 19 20 20 20 20 20 21 21 22 23 24 25 26 26 27 27 28 27 27 26 24 23
3 3 1 3 5 4 5 4 4 4 3 3 1 1 2 2 3 4 4 2 1 3 3 3 4 3 2 2 3 8 11 13 15 14 12 12 13 13 11 10 9 8 6 4 3 3 4 4 4 5 6 7 8 9 10 11 12 13 14 15 16 17 18 20 21 22 23 23 23 23 23 23 24 24 25 26 27 28 28 29 30 31 31 31 31 30
1 1 2 0 3 5 6 5 4 5 3 2 1 1 2 3 2 2 1 1 1 4 5 5 6 3 1 1 2 5 7 8 10 12 11 11 13 13 11 10 8 7 5 4 3 3 3 3 3 4 5 6 7 8 9 10 11 12 13 14 15 15 16 18 20 22 22 23 24 24 25 26 26 26 27 28 28 29 30 31 31 32 32 33 33 33
3 2 3 4 3 5 4 3 2 2 2 1 2 3 1 2 2 1 1 1 2 2 2 3 5 3 3 4 2 3 3 4 7 11 12 13 14 13 12 10 8 7 6 5 4 3 3 2 1 2 3 4 6 7 8 9 11 12 14 14 14 15 16 18 21 22 23 24 25 26 27 28 29 29 30 31 31 32 32 33 33 33 33 33 34 34
3 1 3 5 7 7 5 5 4 3 1 3 5 6 7 6 4 2 2 3 2 1 3 6 7 6 8 10 5 3 4 6 7 10 13 14 15 13 12 10 8 7 6 6 5 4 2 1 2 3 3 5 6 8 10 12 13 15 16 17 17 18 19 22 24 25 26 27 28 29 30 31 32 33 34 35 36 36 36 36 36 36 36 36 36 36
4 1 3 6 6 7 5 4 1 3 1 5 6 9 11 10 6 4 5 4 2 2 7 10 8 6 9 13 9 3 5 6 7 10 14 16 16 14 11 10 9 8 7 6 6 4 3 4 6 7 8 9 11 12 14 15 16 16 17 17 18 19 20 22 24 25 27 29 30 31 31 32 34 35 36 38 39 39 40 40 40 40 40 40 41 41
4 3 4 4 3 7 5 3 3 1 2 5 6 9 12 13 12 9 8 7 5 6 10 11 10 9 11 13 9 5 7 8 9 12 15 13 14 14 12 10 9 8 8 7 6 7 7 8 9 10 11 12 13 14 15 15 16 16 17 17 18 18 19 19 20 22 23 25 27 29 31 33 35 36 37 38 39 39 40 41 42 42 43 44 45 46
3 2 2 3 3 7 5 3 3 3 4 6 8 11 13 15 13 10 9 10 9 9 12 11 10 13 13 9 6 7 9 7 5 5 5 8 13 14 12 11 9 8 7 6 5 6 7 7 8 9 11 11 12 12 13 13 14 14 15 15 14 15 17 18 20 21 22 24 25 27 30 33 34 35 37 38 38 39 40 41 43 44 46 47 48 49
2 1 1 3 0 6 3 1 2 4 5 6 10 14 15 14 12 11 11 9 7 9 10 9 9 12 11 6 5 7 6 3 6 7 8 10 12 14 12 9 8 6 6 6 6 5 5 4 4 5 6 7 8 8 10 11 12 13 13 14 14 16 18 20 22 23 23 25 26 29 31 33 34 35 36 37 39 40 42 43 45 47 48 49 50 51
2 1 1 4 2 5 2 4 1 5 5 7 14 19 18 13 10 10 9 7 8 9 8 7 8 10 8 7 5 3 3 6 8 9 10 10 10 11 9 7 6 5 6 8 8 7 6 5 5 5 5 6 6 9 12 14 16 17 18 19 21 21 22 22 23 24 26 28 30 32 33 34 35 36 38 39 40 42 43 45 47 48 50 51 52 52
3 3 1 2 1 6 2 4 3 1 3 7 12 14 14 11 9 9 8 8 10 8 6 7 8 8 6 6 6 3 3 6 7 8 8 8 7 6 6 5 6 7 8 9 8 8 7 6 7 8 9 10 11 15 19 21 23 24 24 24 24 24 24 24 25 27 30 31 32 33 34 36 38 40 42 42 43 44 45 46 47 48 49 51 52 53
4 5 3 3 2 4 3 4 4 2 6 8 4 4 6 7 7 8 9 10 10 7 5 5 6 5 5 7 7 6 5 6 6 6 5 5 4 6 8 8 7 8 9 8 8 7 7 8 8 10 11 12 16 20 23 24 25 25 25 25 25 26 26 28 29 30 31 32 33 34 37 39 41 43 44 45 45 45 46 47 47 48 48 49 50 52
4 4 3 2 2 2 3 5 2 7 9 5 1 4 6 6 7 7 9 10 9 7 6 5 4 5 8 9 9 10 9 7 5 4 3 3 6 9 9 8 6 7 8 7 8 8 10 11 11 11 12 15 19 22 24 25 25 24 25 25 27 28 29 30 31 31 32 33 35 38 40 42 44 45 46 46 46 47 48 48 48 48 48 48 49 51
5 4 2 2 2 1 2 4 6 7 5 7 7 4 3 3 4 4 7 9 9 8 7 7 7 8 11 11 9 8 7 5 2 2 2 4 7 8 7 4 3 4 6 8 11 12 13 13 13 13 15 17 20 23 24 25 25 26 26 27 28 29 30 30 31 32 35 37 39 41 43 44 45 46 47 47 48 48 48 48 48 49 49 50 51 52
7 5 3 2 3 3 4 7 6 5 9 13 11 4 3 5 5 4 4 8 8 5 6 5 5 6 8 10 9 7 4 1 3 2 4 5 5 5 4 2 4 8 11 11 13 13 13 13 13 14 16 19 21 23 24 25 26 28 29 29 29 30 30 31 33 36 39 41 42 43 44 45 45 46 47 47 47 48 49 49 50 51 51 52 54 55
5 5 5 4 4 4 4 5 5 5 8 9 6 2 3 3 5 6 2 4 6 5 6 6 5 5 8 10 9 6 3 1 4 2 7 7 5 3 4 8 11 14 14 13 13 13 13 14 14 16 19 22 24 25 25 26 28 29 30 30 30 30 31 34 37 39 41 42 43 44 44 44 44 45 46 46 47 49 50 51 52 53 53 53 54 56
3 3 5 4 4 5 4 5 5 6 7 5 4 4 3 5 8 7 3 4 6 5 7 8 7 9 11 11 10 6 3 1 4 6 5 5 7 8 11 14 15 15 15 14 15 15 15 16 17 19 22 24 26 26 27 28 30 30 31 30 30 32 35 37 39 41 42 43 44 44 43 43 43 43 45 46 48 49 51 52 53 54 53 53 53 53
3 2 4 5 6 7 7 6 5 5 5 4 5 6 5 5 6 5 3 7 6 4 7 10 12 15 15 12 9 6 3 5 7 11 10 7 9 11 12 14 14 14 14 16 17 18 18 18 19 21 24 26 27 27 28 30 31 31 31 31 33 35 38 39 40 41 42 43 43 42 42 41 42 43 45 47 49 50 51 52 52 52 51 50 49 49
2 1 3 6 7 10 9 6 4 5 4 4 6 11 10 4 4 2 5 7 7 8 9 12 16 19 17 13 10 7 8 11 12 14 13 10 11 12 12 13 14 14 15 18 19 19 19 20 21 24 26 27 27 28 29 31 31 31 32 33 36 38 39 40 40 41 42 42 41 41 41 41 43 45 46 47 49 50 50 50 49 48 47 46 46 45
2 1 2 4 5 6 6 5 5 5 4 8 10 12 11 5 1 5 7 6 8 12 13 16 18 19 17 15 13 14 17 17 14 13 13 13 14 14 14 15 14 14 17 20 20 21 21 23 24 26 27 27 27 29 30 31 31 31 33 36 38 39 39 40 41 41 41 41 40 40 41 42 44 45 46 47 47 48 49 47 45 44 42 42 43 43
5 3 2 4 4 3 2 5 5 5 5 13 11 5 4 6 7 9 8 9 12 14 17 20 21 19 17 18 18 18 19 16 14 14 14 14 14 15 16 16 15 17 19 21 22 23 23 25 26 27 27 27 28 30 30 31 31 33 35 37 38 38 39 40 40 41 40 40 40 41 42 43 44 44 45 46 45 45 46 44 42 40 40 39 41 42
3 4 3 3 3 4 4 6 5 5 8 17 16 6 9 15 16 12 10 12 15 17 19 21 20 20 19 20 20 19 18 17 15 14 13 14 16 16 16 17 17 20 21 22 24 25 25 27 28 27 27 27 29 30 30 30 32 35 37 37 38 38 39 40 40 40 39 39 41 42 42 43 43 43 43 43 43 43 42 41 39 39 38 38 39 42
6 7 6 5 4 5 4 5 5 7 13 19 21 19 21 23 21 18 17 17 17 18 20 20 19 20 20 21 21 19 19 19 17 14 14 16 17 17 17 18 20 21 23 24 25 26 27 28 28 27 27 28 29 29 29 31 34 36 37 37 37 38 39 39 39 39 39 40 41 41 42 42 42 42 42 41 40 39 39 38 38 38 38 38 39 41
8 10 5 2 1 2 2 6 6 7 12 18 24 27 26 22 21 22 22 22 20 20 21 21 22 23 22 22 22 21 21 20 17 15 16 17 18 19 19 20 21 23 24 25 26 27 27 27 27 27 29 29 28 28 30 32 35 36 36 36 36 36 37 37 38 38 39 40 40 41 41 42 42 41 41 39 36 35 35 36 37 38 38 38 38 39
9 14 8 2 2 2 2 4 7 11 16 20 23 24 24 22 22 23 23 24 24 25 26 26 27 27 25 24 25 24 23 20 17 16 16 17 20 21 21 22 23 24 25 26 27 27 27 26 27 29 29 29 28 29 32 34 34 34 34 34 34 35 35 36 36 38 39 39 40 40 40 41 41 41 40 37 34 33 34 34 35 37 37 37 38 38
7 11 8 5 6 6 5 8 15 21 26 27 24 22 22 24 24 23 24 26 28 30 31 29 27 25 24 26 27 26 24 20 18 18 18 19 21 22 22 24 24 25 26 26 26 26 26 27 29 30 29 28 29 31 34 34 33 32 31 32 32 33 34 34 35 37 37 38 38 39 39 39 40 39 38 36 34 34 34 34 34 36 36 36 37 38
8 6 5 4 4 4 5 12 19 20 21 26 28 27 27 29 29 28 28 29 29 30 31 29 26 23 24 26 27 25 23 20 18 19 20 21 22 23 23 24 25 26 26 26 25 25 26 28 29 29 28 29 30 33 34 33 31 30 29 30 30 31 32 34 35 35 36 36 37 38 38 38 38 37 36 35 35 34 33 33 34 36 37 35 35 35
9 7 5 4 3 4 6 12 15 10 8 17 27 30 31 31 29 29 29 27 26 26 27 26 25 23 23 25 26 25 23 21 20 21 22 22 23 24 24 25 25 25 25 24 25 26 27 28 28 28 28 30 32 33 34 32 30 27 27 28 28 29 31 33 34 35 35 35 36 37 37 38 37 36 35 34 35 36 35 32 31 33 35 36 34 32
16 13 9 6 6 10 14 21 22 15 11 19 27 30 29 28 26 26 26 25 24 23 23 23 24 24 25 26 26 25 23 22 22 22 22 23 24 24 25 25 25 24 24 24 26 27 27 28 28 28 29 31 32 33 33 31 27 25 26 27 27 28 29 31 32 34 34 34 35 35 36 37 36 35 34 34 35 37 38 37 33 30 30 32 34 33
Wind_Direction
166 124 159 202 217 217 218 214 217 233 227 235 253 258 257 247 265 274 271 286 335 341 269 265 294 294 292 297 290 288 295 308 303 310 70 94 95 89 84 80 76 74 72 73 72 68 64 62 63 68 74 85 102 106 113 119 109 114 125 120 113 114 116 115 113 119 230 254 256 255 255 255 255 255 256 257 258 259 260 260 261 261 262 261 261 261
158 159 219 215 220 225 228 223 227 247 247 243 240 252 266 250 264 277 279 289 352 29 269 302 347 306 295 293 284 288 304 326 317 98 103 99 93 87 86 82 80 80 79 79 78 74 74 73 74 77 80 83 86 89 93 95 92 84 78 81 90 98 99 100 102 101 105 116 207 243 250 254 259 259 259 259 261 263 264 265 266 266 267 267 266 266
161 223 238 228 226 242 265 252 238 253 254 257 250 251 279 268 290 296 293 307 13 14 275 311 324 291 291 279 279 295 340 42 71 101 103 97 93 85 83 83 84 83 79 79 77 76 78 77 78 79 78 79 80 81 82 83 82 78 74 74 79 82 80 81 82 84 86 86 88 73 281 279 284 282 279 278 275 271 267 267 268 268 270 271 271 271
182 232 239 237 228 233 267 262 252 263 265 261 255 258 274 277 320 284 295 327 338 290 260 300 297 282 283 269 283 346 77 83 83 91 91 92 92 87 86 85 84 83 80 79 79 79 79 78 78 78 78 79 79 78 77 77 76 74 73 72 72 73 71 72 70 69 72 75 83 89 326 287 308 311 309 317 317 305 292 281 274 273 272 272 274 273
219 230 228 233 221 199 234 259 254 247 266 264 224 217 244 257 232 231 274 329 329 322 341 5 324 289 251 256 280 63 91 85 83 87 84 84 87 88 88 84 83 84 83 82 81 80 79 78 77 76 77 77 76 75 73 73 73 72 72 70 69 68 67 67 65 65 65 66 71 74 76 85 97 97 82 52 16 354 353 343 328 311 294 282 278 274
242 246 225 239 257 215 208 247 234 195 241 288 236 217 221 229 236 246 328 9 14 334 325 46 10 291 252 255 267 128 94 68 73 81 80 81 84 86 84 82 84 84 84 84 83 83 82 81 80 78 77 76 75 74 71 70 69 68 68 66 65 64 63 61 60 59 58 58 59 59 58 58 60 57 49 39 7 353 3 5 356 350 346 335 314 294
247 240 189 204 233 215 204 252 231 167 151 274 252 212 197 196 208 244 17 31 47 256 279 72 101 274 269 255 258 150 98 80 76 73 76 79 80 83 83 83 85 85 86 85 83 86 86 85 83 80 77 75 73 72 69 67 65 63 63 63 63 63 62 61 58 56 53 52 52 52 52 50 49 46 39 32 3 348 0 7 359 356 360 1 356 348
216 148 82 115 165 179 204 253 233 159 138 232 255 129 114 127 163 183 116 171 228 251 306 277 180 255 278 248 245 126 103 96 88 76 75 80 80 83 84 84 86 87 89 87 82 82 83 84 82 79 76 74 72 70 68 65 63 63 62 62 63 62 62 61 58 56 53 51 50 50 51 50 50 48 44 41 28 9 8 10 9 7 5 4 4 4
208 164 179 149 138 185 207 233 206 149 147 237 233 113 102 124 153 166 141 214 258 345 309 258 185 234 273 261 242 121 123 135 122 107 86 85 86 86 86 87 89 91 92 91 88 82 80 81 80 78 75 71 70 67 65 65 65 64 63 63 62 61 61 59 56 54 52 52 51 51 51 51 51 51 49 47 43 37 28 20 17 14 9 5 2 2
226 170 188 149 145 209 216 241 170 148 185 235 170 90 62 69 107 118 152 152 6 346 255 232 187 193 269 283 299 119 147 167 142 115 97 93 91 92 93 94 95 95 94 93 92 88 84 81 79 77 74 69 67 65 64 66 64 63 62 59 58 59 58 56 54 52 53 54 52 52 52 51 51 51 50 49 47 46 43 38 30 22 14 7 2 359
237 99 144 157 192 204 174 121 78 138 174 117 78 50 23 8 16 35 75 89 52 285 242 223 201 188 266 289 240 176 179 162 146 130 121 102 96 100 103 103 102 100 98 96 94 91 86 82 79 75 71 68 67 65 65 65 63 61 59 55 54 56 55 53 52 51 54 55 53 53 51 49 48 47 45 43 42 41 40 39 36 31 22 11 4 360
333 102 217 221 212 175 117 100 22 30 99 94 73 62 20 339 7 30 7 49 102 253 258 238 205 183 223 267 297 333 34 138 142 147 145 120 106 109 111 111 108 104 101 98 95 91 88 83 77 71 69 69 68 66 65 64 63 61 59 55 53 55 54 52 51 52 54 55 53 51 48 46 44 40 37 35 33 31 29 29 29 28 26 19 10 3
291 223 232 244 218 184 134 97 330 356 45 90 86 84 39 318 358 7 310 107 208 247 258 244 160 176 225 251 17 14 25 68 101 120 128 124 121 121 118 116 112 108 104 99 94 89 84 77 71 68 67 67 67 66 65 64 62 60 59 55 53 56 57 54 54 54 53 52 49 45 41 40 38 34 32 29 27 24 21 19 18 18 20 19 15 7
297 291 259 163 268 198 160 153 234 280 113 139 142 138 156 181 198 264 253 248 269 264 263 266 82 240 258 308 35 34 47 78 96 109 121 126 128 128 124 120 114 109 104 96 90 82 76 71 68 66 65 66 67 67 66 64 63 62 61 58 58 61 61 58 57 54 52 50 45 41 36 33 29 26 25 23 23 21 17 15 13 13 15 14 13 9
245 302 238 185 254 181 173 188 175 151 150 176 164 143 150 167 195 237 231 224 258 276 285 298 307 213 221 349 46 68 80 91 103 116 124 127 130 130 126 122 116 108 101 94 86 77 72 69 67 67 67 68 68 68 66 65 66 64 63 64 64 65 65 62 60 56 54 52 48 43 36 30 25 20 17 17 16 15 14 12 10 9 10 8 7 6
204 262 249 204 139 149 174 240 124 109 95 228 145 119 170 194 186 236 245 205 203 289 293 272 243 210 146 88 67 83 84 88 102 117 122 126 132 132 129 124 117 108 102 94 82 75 73 74 74 72 69 68 67 67 67 69 70 67 66 67 66 66 66 62 58 55 53 51 47 43 38 33 27 20 15 12 9 6 5 4 3 4 5 3 0 358
200 257 282 27 53 149 164 190 126 137 202 269 113 171 222 184 137 143 280 264 124 264 260 215 242 302 88 83 75 88 83 85 101 118 125 133 137 135 133 126 119 112 106 97 87 82 84 86 81 68 63 65 65 66 69 73 72 70 70 71 70 70 68 63 60 56 52 48 42 38 34 28 23 18 13 9 4 359 355 352 352 355 356 355 355 353
182 259 278 160 173 240 162 105 6 133 141 127 163 220 235 67 79 104 252 307 284 250 258 243 245 243 207 234 155 121 120 118 137 139 131 140 145 143 140 132 126 121 116 111 103 99 99 91 71 60 61 62 64 66 69 72 70 68 67 66 66 64 61 58 55 52 48 44 39 36 32 24 18 13 8 4 359 353 347 342 342 345 345 347 348 347
155 249 284 229 165 243 47 68 351 351 70 126 172 210 126 99 288 292 144 220 241 250 273 265 250 240 228 215 179 173 171 161 171 166 150 164 167 159 151 145 141 136 133 130 124 119 110 87 54 53 61 62 70 73 73 73 70 68 65 62 60 57 55 52 47 44 39 34 33 30 27 23 17 12 6 360 354 346 341 339 338 339 340 341 341 338
104 168 274 306 140 237 28 59 200 283 5 58 54 350 69 165 196 210 182 182 212 242 262 258 250 253 249 208 171 177 178 169 173 174 179 187 180 170 164 160 159 158 159 153 144 140 118 94 70 78 83 78 78 74 70 67 63 59 54 50 48 44 41 37 33 31 28 24 22 18 15 11 6 3 359 354 349 342 339 338 338 339 338 338 336 333
56 167 243 304 334 17 36 206 183 179 126 55 38 316 286 237 203 252 238 158 158 207 242 250 250 252 263 217 163 174 176 171 172 168 184 196 189 182 180 180 179 176 176 176 167 154 133 127 120 106 95 83 75 67 62 57 50 46 40 37 35 29 26 23 20 18 15 12 9 6 4 0 357 354 349 346 343 339 338 337 337 338 336 336 334 331
54 185 201 282 307 225 228 233 165 138 136 138 176 208 205 205 226 274 264 210 159 186 196 222 256 268 280 305 150 164 164 168 173 171 188 203 198 194 197 199 198 192 189 188 178 158 129 120 114 101 88 75 65 55 47 40 33 30 27 24 21 18 16 13 10 7 4 1 359 357 355 353 351 348 346 343 340 338 338 337 337 336 333 332 329 327
98 114 127 257 254 227 241 256 155 131 158 161 196 214 161 155 148 193 243 243 214 224 191 185 241 262 273 283 139 153 163 172 178 181 193 204 202 201 205 206 206 203 196 186 170 146 116 103 95 85 72 59 49 39 31 26 22 20 17 14 11 9 6 4 2 359 357 355 353 350 349 346 344 342 341 340 338 337 337 336 336 335 332 330 327 324
75 90 98 275 287 295 290 309 14 32 103 131 283 314 124 149 159 172 210 224 236 243 245 263 257 242 283 332 108 139 160 171 183 194 199 198 199 204 206 202 201 200 189 172 147 125 112 100 85 69 52 38 32 26 20 17 16 13 10 6 2 1 360 357 354 352 351 348 346 346 344 341 339 337 336 335 334 334 333 333 333 332 331 329 327 325
111 117 120 149 302 314 324 334 358 7 37 107 264 277 132 135 123 98 114 136 222 229 224 248 257 245 273 323 81 115 144 170 197 210 208 200 200 204 203 197 195 193 183 173 159 136 123 114 85 53 36 25 19 13 9 7 4 360 357 352 348 347 349 348 344 342 341 339 338 338 338 337 335 333 332 331 330 329 328 328 327 327 326 325 324 323
150 172 130 132 214 246 268 264 237 350 4 346 287 297 270 221 240 306 324 227 233 227 201 230 251 265 274 249 192 138 158 205 225 222 216 213 209 205 201 198 196 191 181 173 167 156 145 137 84 33 25 14 4 356 348 343 338 336 335 334 331 327 327 330 331 330 330 330 329 329 330 331 330 329 328 327 326 325 324 324 323 322 321 320 319 318
114 208 173 163 203 230 232 217 185 96 19 281 293 296 286 274 245 188 202 227 220 244 258 243 240 262 274 265 246 181 196 226 234 224 217 214 212 208 203 199 195 190 188 186 184 181 177 202 293 312 314 321 323 321 321 320 319 321 322 323 322 317 316 320 322 322 323 323 322 322 323 324 325 325 325 324 323 323 322 322 321 320 319 318 317 316
97 270 219 173 210 243 232 218 197 75 188 241 270 281 280 280 269 219 222 232 212 268 263 255 253 255 260 268 275 239 209 233 250 255 253 237 216 206 197 188 190 194 197 202 205 214 244 273 286 290 289 292 297 300 307 311 313 315 317 317 316 313 312 313 314 315 316 316 316 316 317 318 319 320 320 320 320 320 320 319 319 319 319 318 317 317
113 242 234 150 222 263 261 270 314 347 239 238 253 266 270 270 264 253 244 235 217 238 256 262 270 266 261 269 276 250 242 254 259 268 269 244 206 191 184 180 186 193 200 213 227 240 260 276 283 287 288 289 293 296 301 305 306 306 306 307 307 305 303 303 303 304 304 305 306 308 310 313 315 315 315 315 314 315 315 315 316 316 316 316 316 316
106 246 251 138 235 271 275 289 312 289 264 266 261 257 258 261 260 255 249 237 221 233 252 262 270 268 265 270 275 274 274 262 226 213 212 191 180 180 183 189 193 197 203 215 226 235 250 269 279 281 280 281 282 286 289 290 291 292 292 294 295 292 289 290 291 293 293 295 297 300 302 305 309 311 311 311 312 312 312 313 313 313 313 313 313 313
92 195 279 93 29 284 280 77 355 286 269 277 273 263 257 259 263 260 253 244 234 241 248 256 265 266 271 287 295 285 271 180 132 129 144 162 176 180 182 187 189 191 198 206 210 214 225 247 274 279 270 269 275 285 291 292 290 290 288 288 289 289 290 291 291 291 291 291 292 294 298 303 308 311 312 312 312 312 311 311 311 310 310 310 310 309
88 186 314 74 63 284 284 100 263 283 292 282 270 264 258 253 253 254 246 230 226 237 246 252 255 259 274 291 282 252 157 134 119 115 127 144 163 176 182 188 197 206 210 211 212 217 228 250 281 297 287 279 290 302 305 304 303 301 300 299 299 298 297 294 292 291 291 292 296 300 305 310 312 313 313 312 311 310 309 308 307 308 307 307 306 306
133 141 162 115 193 277 276 127 159 237 305 277 261 256 255 249 242 246 248 238 228 226 231 239 243 247 255 257 245 204 136 134 125 119 129 141 155 185 214 235 246 235 220 215 218 223 236 261 286 295 290 290 298 304 308 310 311 311 310 308 306 304 301 298 296 296 298 301 305 309 312 313 313 312 311 310 309 307 306 305 305 305 305 304 304 303
165 154 174 187 209 253 220 128 110 187 249 259 239 186 211 221 220 230 245 246 235 221 219 239 253 244 219 210 211 203 183 162 149 142 145 159 194 237 253 262 260 236 217 217 226 235 253 273 284 287 287 292 300 305 309 311 312 312 310 308 307 305 304 303 303 304 306 308 310 312 312 312 311 310 310 309 308 308 307 306 306 305 304 303 302 302
181 172 180 189 181 198 147 112 150 230 237 260 211 162 179 187 197 225 251 254 246 238 242 252 246 217 212 217 213 200 184 166 160 162 163 208 237 249 260 267 254 226 221 236 252 262 272 276 279 283 286 294 301 305 309 311 311 310 309 308 307 307 307 307 308 309 310 311 311 312 311 311 310 310 310 310 310 309 309 309 308 307 306 304 303 301
175 172 180 180 174 174 149 176 224 245 281 302 280 233 194 202 209 240 270 266 251 235 227 234 235 224 221 216 194 176 175 179 208 247 232 228 228 229 238 246 242 256 274 281 278 274 273 272 275 279 285 295 304 308 311 312 311 311 310 310 309 309 309 310 310 311 312 312 312 312 312 312 312 312 312 312 312 311 311 311 310 309 307 305 303 301
171 169 179 194 206 207 207 225 251 306 311 288 274 249 207 233 223 208 253 265 255 213 171 186 229 223 199 180 160 148 158 204 308 308 153 162 177 178 189 235 313 313 306 294 280 270 264 264 269 278 290 301 308 311 312 312 312 311 311 310 310 309 310 312 312 313 313 313 313 314 313 314 313 313 314 314 314 313 313 312 310 309 307 305 303 301
178 187 178 190 232 215 203 240 263 281 272 265 261 222 175 189 172 148 143 282 272 233 186 187 207 186 159 155 154 147 120 22 310 226 159 161 187 211 273 297 308 311 305 289 272 262 257 262 274 287 299 307 311 312 312 312 312 311 311 310 310 311 312 313 313 314 314 314 314 314 314 315 315 316 315 315 314 313 312 311 309 308 306 304 303 301
164 200 179 190 235 218 210 232 233 243 251 239 223 213 166 146 142 115 61 296 268 242 205 195 192 176 166 163 159 144 107 123 257 257 228 212 237 264 286 291 295 300 293 274 261 256 259 269 281 292 301 308 310 311 312 312 312 311 310 310 311 312 314 314 314 314 315 315 315 315 316 317 317 317 316 315 314 313 312 310 309 308 307 305 304 303
124 136 185 205 223 221 226 235 236 247 246 219 207 196 165 141 121 89 338 267 237 210 195 190 188 181 176 173 161 146 156 194 239 286 295 270 255 267 278 282 288 290 277 261 257 258 264 274 283 293 302 307 309 310 311 312 311 309 309 311 312 313 314 315 315 315 315 315 315 317 318 318 318 317 317 315 315 313 312 311 310 309 309 307 306 305
104 128 214 217 223 226 226 233 255 256 219 193 196 185 169 125 82 139 245 244 210 200 198 193 192 187 183 183 179 193 239 251 268 291 294 274 262 269 276 282 285 280 265 258 258 260 267 277 287 297 304 307 307 309 310 309 308 309 310 312 314 315 315 316 316 315 315 316 317 318 319 319 319 319 318 316 315 314 313 313 312 311 310 309 308 307
134 150 236 221 222 230 229 232 261 271 211 182 191 188 169 130 102 220 227 226 211 210 201 193 197 196 194 203 215 235 256 266 271 272 265 258 263 272 282 285 279 266 258 256 258 264 273 282 292 300 304 305 306 307 308 308 308 309 311 313 314 316 316 317 316 316 316 318 319 320 321 321 320 319 318 317 317 315 314 314 314 312 312 312 311 310
165 162 217 215 194 180 219 225 239 271 210 168 166 177 170 179 220 226 210 202 212 220 212 204 206 208 209 221 235 247 257 263 257 248 247 256 268 277 281 279 269 260 259 260 264 271 279 287 294 300 301 302 305 307 307 307 307 309 312 314 315 316 317 316 316 316 317 318 320 322 322 321 320 320 319 318 318 317 315 315 315 314 314 315 314 313
173 163 184 218 185 153 198 221 207 230 206 168 157 179 218 213 223 230 224 221 223 222 217 214 217 222 227 237 244 248 254 255 247 244 256 270 276 277 276 271 265 262 262 265 271 277 283 289 294 298 300 302 305 306 306 307 309 311 314 315 316 317 316 315 316 317 318 320 322 323 322 321 321 320 320 321 321 318 316 316 316 316 317 317 317 315
208 195 193 225 209 158 189 230 198 196 204 188 187 212 229 231 238 244 247 247 240 228 224 225 231 238 244 247 245 243 247 247 244 254 274 280 277 274 269 265 264 265 267 272 277 282 287 291 295 298 300 303 305 304 305 308 311 313 315 316 317 316 315 315 316 317 319 321 322 322 322 321 321 322 323 324 322 319 317 319 320 319 319 319 318 316
230 228 220 219 209 160 242 250 212 196 212 209 210 223 232 239 247 249 249 250 249 245 241 239 245 254 258 250 241 240 243 244 248 265 277 278 275 271 267 264 265 268 272 276 281 284 288 292 296 299 301 303 304 304 307 311 313 314 316 317 316 314 314 316 317 318 320 321 321 322 323 322 323 325 326 325 322 320 322 324 323 321 321 320 318 317
250 241 235 207 224 251 260 227 202 212 228 229 227 231 235 241 245 246 248 253 259 263 263 260 260 263 261 251 242 241 244 245 255 272 278 275 271 268 267 267 269 272 276 279 283 287 291 294 297 299 301 302 303 306 309 312 314 315 316 315 314 313 314 316 316 317 319 321 321 323 324 324 326 327 326 324 325 327 328 327 324 321 321 321 320 320
244 234 228 224 233 235 234 235 236 240 247 249 249 248 249 252 250 247 251 261 269 273 273 271 267 264 259 249 242 241 243 247 262 279 281 274 269 267 268 270 273 276 279 281 285 290 293 296 298 299 300 301 304 308 310 313 315 316 315 313 313 313 314 315 315 317 319 321 323 324 325 327 328 328 326 327 330 332 330 328 325 323 323 325 325 322
230 226 210 192 214 232 238 243 246 252 259 260 258 256 256 257 257 258 262 267 271 273 273 272 270 265 257 248 240 238 242 252 270 284 283 273 267 267 269 272 275 278 280 284 288 291 293 295 296 297 298 301 306 309 311 312 314 315 314 312 312 313 314 314 315 317 320 322 324 326 327 329 329 328 328 330 332 332 331 330 328 325 323 326 328 323
227 232 214 166 191 233 227 229 232 236 254 256 255 257 259 259 260 262 265 266 267 266 268 268 265 257 246 240 237 238 245 261 279 285 279 271 267 267 269 272 275 278 282 286 289 290 292 294 294 295 298 303 307 309 310 311 314 314 311 310 311 312 312 313 316 318 321 324 327 328 330 330 330 330 330 332 333 332 331 332 332 328 323 324 328 325
226 227 222 205 220 237 239 239 235 228 236 252 257 261 263 265 265 262 261 263 263 261 260 260 257 251 244 241 241 243 253 270 281 280 274 270 267 268 270 272 276 279 283 285 287 289 291 291 292 296 301 305 308 308 309 312 314 312 309 309 311 311 312 315 317 319 323 327 329 330 331 330 330 331 333 334 334 332 330 331 333 334 330 327 328 328